Flag for China Weather past 2 weeks in Kunming, Yunnan, China

Now
45 °F

Clear.


Feels Like: 41 °F
Forecast: 44 / 58 °F
Wind: 6 mph from Southwest

Location: Kunming Airport

Current Time: Feb 1, 2015 at 11:05:08 PM

Latest Report: Feb 1, 2015 at 10:00 PM


Visibility: 10 mi

Pressure: 30.24 "Hg

Humidity: 81%

Dew point: 39 °F

Location of KunmingLocation

Historic Weather in Kunming — Graph

°F

Kunming temperature yesterday

Maximum temperature yesterday: 61 °F (at 2:00 PM)
Minimum temperature yesterday: 45 °F (at 7:00 AM)
Average temperature yesterday: 53 °F

Past Weeks' High & Low Weather Summary

 TemperatureHumidityPressure
High68 °F (Jan 27, 3:00 PM)100% (Jan 17, 9:00 PM)30.39 "Hg (Jan 17, 9:00 PM)
Low32 °F (Jan 19, 12:00 AM)17% (Jan 23, 4:00 PM)29.95 "Hg (Jan 23, 4:00 PM)
Average48 °F65%30.15 "Hg
* Reported Jan 17 9:00 PM — Feb 1 9:00 PM, Kunming, Weather by CustomWeather, © 2014

Note: Actual official high and low records may vary slightly from our data, if they occured in-between our weather recording intervals... More about our weather records

Advertising

Kunming weather history for previous 24 hours

 ConditionsComfort  
Time TempWeatherWind HumidityBarometerVisibility
9:00 PM
Feb 1
48 °FPassing clouds.8 mph71%30.21 "HgN/A
8:00 PM50 °FClear.10 mph67%30.18 "Hg10 mi
7:00 PM54 °FClear.17 mph54%30.15 "Hg10 mi
6:00 PM55 °FPassing clouds.22 mph55%30.15 "HgN/A
5:00 PM55 °FPassing clouds.22 mph55%30.12 "HgN/A
4:00 PM55 °FScattered clouds.17 mph63%30.12 "HgN/A
3:00 PM52 °FThunderstorms. Broken clouds.13 mph82%30.15 "HgN/A
2:00 PM55 °FBroken clouds.13 mph77%30.15 "HgN/A
1:00 PM55 °FPartly sunny.22 mph67%30.21 "HgN/A
12:00 PM52 °FScattered clouds.10 mph88%30.24 "Hg6 mi
11:00 AM52 °FSprinkles. Fog.8 mph88%30.27 "Hg3 mi
10:00 AM50 °FPassing clouds.6 mph88%30.27 "Hg4 mi
9:00 AM46 °FFog.8 mph100%30.24 "Hg3 mi
8:00 AM45 °FClear.10 mph100%30.24 "Hg4 mi
7:00 AM45 °FClear.10 mph100%30.21 "Hg4 mi
6:00 AM45 °FClear.8 mph100%30.18 "Hg10 mi
5:00 AM45 °FPassing clouds.13 mph100%30.18 "HgN/A
4:00 AM46 °FPassing clouds.10 mph93%30.21 "HgN/A
3:00 AM46 °FPassing clouds.10 mph93%30.21 "HgN/A
2:00 AM46 °FClear.10 mph87%30.21 "Hg10 mi
1:00 AM48 °FPassing clouds.10 mph76%30.21 "HgN/A
12:00 AM50 °FPassing clouds.10 mph67%30.21 "HgN/A
11:00 PM
Jan 31
52 °FPassing clouds.10 mph62%30.21 "HgN/A
Weather by CustomWeather, © 2014

See weather overviewHow to use our weather pages